Zurück zum Katalog

LANDSAT 5

AktivWissenschaftSSO
NORAD 14780·PAYLOAD·🇺🇸 United States

Gestartet Mar 1, 1984 von Vandenberg Space Force Base

Loading…

Nächste Überflüge (nächste 24 Stunden)

TLE

AktuellSource: Space-Track

Epoche: Sep 14, 2026, 12:54 UTC

1 14780U 84021A   26257.53812894  .00002121  00000-0  14760-3 0  9994
2 14780  98.0659 180.6800 0068259 175.5184 184.6668 15.04810402804829

Verfolge LANDSAT 5 in Echtzeit mit AllMySat

Download on the App Store